Satellite: FALCON
Catalog number: 30776
Epoch time:      09273.96464815
Element set:    0674
Inclination:      035.4331 deg
RA of node:       177.6093 deg
Eccentricity:    0.0000339
Arg of perigee:   071.5624 deg
Mean anomaly:     288.5129 deg
Mean motion:   15.03315252 rev/day
Decay rate:       4.74e-06 rev/day^2
Epoch rev:           14102
Checksum:              290

Satellite: MAST
Catalog number: 31126
Epoch time:      09274.73612497
Element set:     698
Inclination:      097.9767 deg
RA of node:       324.5963 deg
Eccentricity:    0.0093988
Arg of perigee:   309.6694 deg
Mean anomaly:     049.6232 deg
Mean motion:   14.53518962 rev/day
Decay rate:        4.4e-07 rev/day^2
Epoch rev:           13051
Checksum:              346

Satellite: CAPE1
Catalog number: 31130
Epoch time:      09273.77749049
Element set:     707
Inclination:      097.9787 deg
RA of node:       321.6332 deg
Eccentricity:    0.0102220
Arg of perigee:   318.8764 deg
Mean anomaly:     040.4731 deg
Mean motion:   14.52089892 rev/day
Decay rate:       1.25e-06 rev/day^2
Epoch rev:           13001
Checksum:              291

Satellite: COMPASS
Catalog number: 32787
Epoch time:      09273.79266734
Element set:    0481
Inclination:      097.9318 deg
RA of node:       336.6641 deg
Eccentricity:    0.0016680
Arg of perigee:   052.1208 deg
Mean anomaly:     308.1513 deg
Mean motion:   14.81661087 rev/day
Decay rate:        6.8e-07 rev/day^2
Epoch rev:           07708
Checksum:              319

Satellite: AAUSAT2
Catalog number: 32788
Epoch time:      09274.83213886
Element set:     473
Inclination:      097.9325 deg
RA of node:       337.7714 deg
Eccentricity:    0.0016553
Arg of perigee:   050.2016 deg
Mean anomaly:     310.0618 deg
Mean motion:   14.81788728 rev/day
Decay rate:       3.23e-06 rev/day^2
Epoch rev:            7724
Checksum:              316

Satellite: DO-64
Catalog number: 32789
Epoch time:      09274.71870176
Element set:     488
Inclination:      097.9365 deg
RA of node:       337.8921 deg
Eccentricity:    0.0016518
Arg of perigee:   048.0874 deg
Mean anomaly:     312.1731 deg
Mean motion:   14.81802706 rev/day
Decay rate:       2.95e-06 rev/day^2
Epoch rev:            7722
Checksum:              341

Satellite: CO-66
Catalog number: 32791
Epoch time:      09274.72595817
Element set:     470
Inclination:      097.9336 deg
RA of node:       337.6215 deg
Eccentricity:    0.0017088
Arg of perigee:   046.6416 deg
Mean anomaly:     313.6214 deg
Mean motion:   14.81482957 rev/day
Decay rate:        1.8e-07 rev/day^2
Epoch rev:            7718
Checksum:              338

Satellite: RS-30
Catalog number: 32953
Epoch time:      09274.75794789
Element set:     418
Inclination:      082.5046 deg
RA of node:       190.3496 deg
Eccentricity:    0.0018632
Arg of perigee:   310.5441 deg
Mean anomaly:     049.4015 deg
Mean motion:   12.43003183 rev/day
Decay rate:        1.0e-07 rev/day^2
Epoch rev:            6163
Checksum:              287

Satellite: TACSAT-3
Catalog number: 35001
Epoch time:      09273.59158009
Element set:     109
Inclination:      040.4573 deg
RA of node:       330.1657 deg
Eccentricity:    0.0024041
Arg of perigee:   229.0687 deg
Mean anomaly:     130.8045 deg
Mean motion:   15.39233803 rev/day
Decay rate:      2.944e-05 rev/day^2
Epoch rev:            2059
Checksum:              275

Satellite: PHARMSAT
Catalog number: 35002
Epoch time:      09274.56281472
Element set:     106
Inclination:      040.4709 deg
RA of node:       323.5713 deg
Eccentricity:    0.0027702
Arg of perigee:   239.4337 deg
Mean anomaly:     120.3743 deg
Mean motion:   15.39990023 rev/day
Decay rate:      2.793e-05 rev/day^2
Epoch rev:            2074
Checksum:              274

Satellite: HAWKSAT1
Catalog number: 35003
Epoch time:      09273.54178853
Element set:     110
Inclination:      040.4629 deg
RA of node:       328.9203 deg
Eccentricity:    0.0027242
Arg of perigee:   236.7079 deg
Mean anomaly:     123.1126 deg
Mean motion:   15.40769131 rev/day
Decay rate:      5.565e-05 rev/day^2
Epoch rev:            2060
Checksum:              269

Satellite: CP6
Catalog number: 35004
Epoch time:      09274.51232095
Element set:     105
Inclination:      040.4616 deg
RA of node:       323.0815 deg
Eccentricity:    0.0026983
Arg of perigee:   243.8129 deg
Mean anomaly:     115.9908 deg
Mean motion:   15.40859667 rev/day
Decay rate:      6.484e-05 rev/day^2
Epoch rev:            2074
Checksum:              300

Satellite: AEROCUB3
Catalog number: 35005
Epoch time:      09273.55648074
Element set:     105
Inclination:      040.4745 deg
RA of node:       329.1869 deg
Eccentricity:    0.0026916
Arg of perigee:   233.2775 deg
Mean anomaly:     126.5567 deg
Mean motion:   15.40630500 rev/day
Decay rate:      5.817e-05 rev/day^2
Epoch rev:            2059
Checksum:              298

Satellite: DRAGNSAT
Catalog number: 35690
Epoch time:      09273.94974241
Element set:    0074
Inclination:      051.6379 deg
RA of node:       120.0811 deg
Eccentricity:    0.0002791
Arg of perigee:   310.1839 deg
Mean anomaly:     049.8917 deg
Mean motion:   15.83224751 rev/day
Decay rate:     3.6014e-04 rev/day^2
Epoch rev:           00988
Checksum:              305

